Temp
64 60 56 62 61 60 59 54 53 60 68 60 59 57 59 63 64 64 61 63 63 64 65 66 66 65 63 61 60 60 60 59 60 58 58 57 57 57 57 58 60 60 59 59
61 56 67 66 64 61 59 56 55 61 66 63 57 56 59 62 60 59 64 63 62 61 63 65 63 63 62 61 61 61 61 61 59 58 56 57 57 56 56 57 58 58 58 57
57 65 72 69 63 62 56 56 55 56 62 60 57 54 56 62 62 64 61 64 63 62 61 63 63 60 61 61 61 62 61 61 60 59 57 56 55 54 54 54 54 56 57 57
60 70 68 63 63 62 53 63 63 60 55 49 56 44 49 54 58 60 59 59 60 61 62 61 59 59 61 63 63 62 61 61 59 58 56 55 54 52 51 51 52 53 55 54
63 65 63 62 63 65 61 65 60 59 51 47 51 45 47 52 54 52 55 58 58 60 60 60 61 62 63 64 61 61 60 58 58 57 56 54 52 50 50 51 50 50 50 52
64 70 67 64 68 67 66 60 55 49 46 41 45 45 43 46 52 52 55 58 59 59 60 61 61 61 59 59 60 60 58 57 57 60 56 52 51 50 50 50 49 53 52 50
62 63 67 71 64 65 61 50 40 40 38 39 47 44 45 54 58 56 54 55 58 59 59 59 59 57 56 56 56 59 54 52 53 53 52 51 50 50 52 52 52 52 49 47
50 51 64 70 61 56 54 50 41 35 34 40 49 40 46 56 57 58 58 55 56 54 54 55 54 52 53 54 54 53 51 51 51 51 50 50 49 48 48 50 51 49 46 46
49 52 65 67 66 61 54 47 50 44 40 37 40 46 54 56 56 56 55 54 52 52 51 51 51 52 53 51 51 50 49 49 49 49 48 48 48 48 47 47 47 46 47 49
54 48 60 65 66 63 57 58 45 41 33 33 39 42 41 48 50 52 51 49 49 49 49 51 52 53 51 49 48 47 47 45 46 47 47 48 47 47 46 46 45 46 46 46
54 50 53 59 55 53 53 50 47 44 41 34 32 38 47 50 50 47 47 48 48 47 48 50 50 49 51 48 45 45 45 45 45 46 46 45 45 46 45 45 45 45 45 46
53 47 43 50 59 61 57 50 46 38 40 38 36 37 52 51 50 49 49 49 48 48 51 50 47 48 46 44 44 44 44 44 45 45 45 45 45 45 44 44 45 45 45 46
53 44 37 44 51 56 52 54 50 44 40 37 34 38 53 52 50 50 48 50 50 50 49 49 48 45 45 44 44 44 43 43 45 45 45 44 44 44 44 44 45 45 45 46
56 44 43 39 46 49 48 52 52 46 35 39 41 42 47 47 48 49 48 50 50 48 50 49 45 42 42 43 43 44 43 44 44 45 44 43 44 44 44 44 45 45 46 46
52 45 46 49 52 53 51 51 52 45 45 40 44 43 43 46 48 50 49 49 50 50 49 47 42 41 41 42 43 43 43 44 44 44 43 44 44 45 45 46 46 46 46 46
49 43 45 46 53 53 49 50 49 48 49 46 45 42 48 48 49 50 51 51 49 48 46 45 44 43 42 42 43 43 43 44 44 43 44 45 46 46 46 46 46 46 45 45
47 43 40 38 48 48 40 47 48 48 48 46 39 43 47 49 51 50 49 49 46 45 45 44 43 41 41 41 43 42 42 43 43 44 46 47 47 47 46 46 46 45 44 44
44 41 39 34 40 29 45 54 54 49 50 50 50 51 50 49 48 46 48 45 44 44 44 42 40 40 41 42 42 42 43 43 44 45 46 47 47 46 45 45 44 44 43 44
48 42 36 34 30 42 47 48 46 45 43 50 48 50 49 49 46 43 46 44 41 41 42 41 41 41 41 42 43 42 43 43 45 46 46 47 47 45 44 43 42 42 42 42
50 47 43 39 35 34 43 52 56 54 39 48 49 49 48 44 36 39 43 44 43 43 42 41 41 41 41 42 41 42 43 42 44 47 49 47 49 45 42 41 40 40 41 41
41 42 40 38 37 42 50 53 54 37 36 49 48 45 43 41 40 41 43 41 42 41 41 42 41 40 41 42 42 42 42 43 45 47 48 47 46 44 41 40 39 39 40 41
43 40 37 38 35 33 52 50 41 43 44 45 44 42 40 41 41 41 42 41 40 40 41 42 40 41 42 43 43 44 44 46 46 46 45 45 43 45 43 39 39 39 39 39
41 44 39 39 38 45 46 44 45 46 44 43 41 41 41 40 40 41 41 39 40 40 40 41 40 41 45 46 47 45 47 48 46 45 47 45 44 43 41 39 39 38 39 43
46 47 40 41 43 44 45 46 47 46 44 44 43 41 41 38 40 43 44 39 39 39 40 40 42 43 43 46 48 47 49 48 45 43 44 44 43 42 40 41 44 43 42 41
46 45 41 40 43 46 46 45 46 46 45 44 43 42 41 40 43 45 39 39 39 40 41 41 43 43 44 46 48 49 48 45 42 42 42 44 43 43 44 44 43 44 42 40
44 43 39 38 46 43 43 45 47 45 43 43 42 41 41 40 39 38 39 39 40 41 42 43 45 44 45 47 49 46 46 44 43 44 44 43 43 43 44 43 43 42 41 40
MSLP
1009.94 1010.66 1010.99 1010.73 1010.95 1011.04 1011.15 1011.09 1010.99 1010.41 1009.78 1009.77 1010.75 1010.95 1011.44 1011.43 1011.58 1012.31 1012.88 1013.10 1013.59 1014.81 1015.65 1016.37 1016.99 1017.48 1017.67 1018.13 1018.58 1018.64 1018.74 1018.75 1018.46 1018.76 1019.12 1019.15 1019.28 1019.22 1019.18 1019.12 1018.99 1019.06 1018.86 1018.59
1010.43 1010.55 1009.88 1010.05 1010.37 1010.68 1010.79 1011.00 1011.11 1010.75 1010.34 1010.60 1011.56 1012.40 1012.49 1012.54 1013.12 1013.30 1012.98 1013.49 1014.34 1015.20 1016.03 1016.71 1017.25 1017.57 1017.98 1018.40 1018.85 1019.02 1018.87 1018.86 1018.96 1018.88 1019.00 1019.04 1019.06 1019.05 1019.07 1019.10 1019.02 1018.97 1018.77 1018.62
1010.34 1010.12 1009.63 1009.81 1010.23 1010.67 1010.92 1011.02 1011.17 1011.42 1011.30 1011.74 1012.41 1013.71 1013.73 1013.58 1013.85 1013.60 1013.45 1013.85 1014.78 1015.64 1016.39 1016.92 1017.60 1018.20 1018.71 1019.20 1019.09 1018.97 1018.76 1019.22 1019.15 1019.00 1019.01 1018.83 1019.13 1019.32 1019.39 1019.33 1019.29 1018.99 1018.76 1018.58
1010.16 1009.67 1009.69 1009.89 1010.11 1010.32 1010.71 1010.80 1011.26 1011.78 1012.39 1013.04 1013.32 1014.98 1015.23 1015.15 1014.91 1014.91 1014.99 1015.10 1015.76 1016.42 1017.22 1017.90 1018.46 1018.90 1019.09 1019.08 1019.57 1019.10 1019.20 1019.41 1019.42 1019.12 1019.01 1019.18 1019.43 1019.88 1019.84 1019.75 1019.49 1019.15 1018.84 1018.63
1010.34 1009.88 1009.73 1009.98 1010.18 1010.23 1010.92 1011.15 1011.99 1012.43 1013.38 1014.21 1014.83 1015.44 1016.01 1015.73 1015.71 1016.28 1016.49 1016.64 1016.83 1017.27 1017.77 1018.53 1019.11 1019.59 1019.38 1019.98 1020.58 1019.70 1020.00 1019.66 1019.60 1019.46 1019.53 1019.59 1020.04 1020.30 1020.13 1019.86 1019.65 1019.42 1019.11 1018.73
1010.42 1010.07 1010.09 1010.12 1010.34 1010.56 1011.09 1011.86 1013.05 1014.06 1014.81 1016.05 1015.97 1016.35 1016.98 1016.61 1016.56 1017.14 1017.51 1017.49 1018.02 1017.96 1018.46 1019.09 1019.39 1020.22 1019.67 1019.73 1020.35 1019.95 1020.00 1020.56 1020.42 1019.98 1019.82 1019.97 1020.39 1020.57 1020.34 1020.05 1019.88 1019.50 1019.26 1018.91
1011.35 1011.01 1010.66 1010.39 1010.62 1010.93 1011.64 1013.29 1014.86 1016.06 1016.74 1017.02 1016.49 1016.77 1016.93 1016.55 1016.58 1017.14 1017.93 1018.31 1018.55 1018.83 1019.23 1019.71 1020.04 1020.35 1020.88 1021.27 1020.98 1020.71 1020.95 1021.18 1020.89 1020.44 1020.40 1020.64 1020.73 1020.59 1020.55 1020.35 1020.11 1019.76 1019.44 1019.05
1012.88 1012.27 1011.69 1011.45 1011.67 1012.14 1012.78 1013.75 1015.49 1016.74 1017.91 1017.59 1016.96 1016.98 1016.85 1016.73 1017.09 1017.59 1018.29 1019.17 1019.49 1019.91 1020.31 1020.81 1021.25 1021.65 1021.57 1021.43 1021.53 1021.73 1021.82 1021.87 1021.52 1021.22 1021.30 1021.07 1020.84 1020.95 1020.86 1020.60 1020.25 1019.99 1019.51 1018.91
1013.73 1013.22 1012.47 1012.13 1011.98 1012.40 1013.17 1014.33 1015.31 1016.58 1018.05 1018.41 1017.94 1017.45 1017.22 1017.30 1018.04 1018.39 1019.04 1019.80 1020.60 1020.93 1021.25 1021.45 1021.91 1022.11 1022.50 1022.95 1022.70 1022.50 1022.62 1022.41 1022.19 1022.19 1021.53 1021.19 1021.18 1021.01 1020.80 1020.47 1020.15 1019.74 1019.11 1018.59
1014.35 1014.29 1013.62 1013.00 1012.72 1012.92 1013.36 1014.51 1015.72 1017.18 1018.55 1019.04 1018.54 1018.14 1017.98 1018.53 1019.07 1019.54 1020.16 1020.98 1021.78 1022.31 1022.59 1022.84 1022.91 1023.15 1023.06 1023.20 1023.28 1022.98 1023.05 1022.95 1022.43 1021.98 1021.56 1021.31 1021.16 1020.95 1020.65 1020.21 1019.72 1019.27 1018.90 1018.66
1014.87 1015.40 1015.15 1014.44 1014.34 1014.36 1014.47 1015.29 1016.47 1017.70 1018.74 1019.46 1019.37 1018.97 1018.55 1018.88 1019.65 1020.42 1021.24 1022.05 1022.70 1023.31 1023.69 1024.62 1024.84 1024.26 1023.92 1023.70 1023.81 1023.67 1023.29 1022.86 1022.42 1022.04 1021.76 1021.55 1021.20 1020.81 1020.41 1019.96 1019.52 1019.14 1018.78 1018.44
1015.94 1016.62 1016.79 1016.18 1015.31 1015.19 1015.08 1016.06 1017.04 1018.49 1019.24 1019.62 1019.69 1019.34 1018.94 1019.31 1020.18 1020.94 1021.88 1022.66 1023.26 1023.52 1023.85 1023.47 1024.79 1025.19 1024.74 1024.20 1023.89 1023.58 1023.25 1022.92 1022.52 1022.16 1021.80 1021.45 1021.08 1020.64 1020.23 1019.75 1019.21 1018.87 1018.48 1018.09
1016.36 1017.77 1018.06 1017.16 1016.62 1016.13 1016.37 1016.76 1017.42 1018.51 1019.32 1019.71 1020.12 1019.89 1019.58 1020.11 1021.00 1021.71 1022.09 1022.80 1023.28 1024.20 1024.27 1024.49 1025.13 1025.16 1024.75 1024.35 1023.97 1023.68 1023.39 1023.08 1022.62 1022.18 1021.83 1021.39 1020.88 1020.42 1019.97 1019.44 1018.97 1018.55 1018.28 1017.94
1016.64 1018.26 1018.75 1018.81 1018.12 1017.83 1017.61 1017.45 1017.61 1018.39 1019.41 1019.50 1019.45 1019.73 1020.36 1020.84 1021.29 1021.99 1022.69 1023.24 1023.41 1023.87 1024.24 1024.94 1025.19 1025.12 1024.75 1024.31 1024.10 1023.85 1023.45 1023.02 1022.64 1022.17 1021.73 1021.26 1020.70 1020.28 1019.82 1019.29 1018.79 1018.40 1018.06 1017.78
1017.48 1018.66 1019.09 1018.85 1018.43 1018.11 1017.92 1017.97 1018.07 1018.34 1018.83 1019.40 1019.19 1019.80 1020.56 1021.12 1021.89 1022.56 1022.64 1023.07 1023.52 1024.16 1024.37 1024.71 1024.87 1024.50 1024.51 1024.46 1024.15 1023.80 1023.44 1023.03 1022.48 1021.98 1021.47 1021.00 1020.48 1020.05 1019.61 1019.10 1018.62 1018.25 1017.87 1017.67
1018.34 1019.16 1019.52 1019.41 1018.81 1018.55 1018.58 1018.60 1018.39 1019.07 1019.38 1019.79 1019.98 1020.90 1021.33 1021.82 1022.14 1022.66 1023.46 1023.77 1023.94 1024.36 1024.61 1024.77 1024.90 1025.06 1025.01 1024.73 1024.33 1023.94 1023.48 1022.80 1022.24 1021.83 1021.34 1020.87 1020.39 1019.95 1019.55 1019.06 1018.74 1018.37 1018.05 1017.70
1019.11 1019.95 1020.51 1020.36 1019.74 1019.32 1019.53 1019.67 1019.56 1019.92 1020.11 1020.51 1021.17 1021.78 1022.01 1022.42 1022.89 1023.15 1023.70 1024.39 1024.60 1024.87 1025.00 1025.19 1025.37 1025.37 1025.22 1024.89 1024.36 1023.89 1023.37 1022.70 1022.23 1021.68 1021.16 1020.73 1020.33 1020.02 1019.68 1019.22 1018.82 1018.56 1018.24 1017.87
1019.30 1020.33 1020.91 1021.30 1020.79 1020.68 1020.69 1020.33 1020.22 1020.54 1021.12 1021.32 1021.48 1021.90 1022.38 1022.86 1023.24 1023.50 1023.98 1024.45 1024.80 1025.15 1025.39 1025.59 1025.66 1025.55 1025.20 1024.74 1024.22 1023.74 1023.13 1022.59 1022.02 1021.53 1021.06 1020.50 1020.24 1020.13 1019.86 1019.48 1019.17 1018.66 1018.33 1018.11
1018.75 1020.13 1021.47 1021.88 1022.00 1021.51 1021.05 1021.04 1021.17 1021.16 1022.41 1022.51 1022.60 1022.74 1023.10 1023.65 1023.90 1024.23 1024.59 1024.96 1025.37 1025.68 1025.90 1025.93 1025.83 1025.55 1025.10 1024.65 1024.09 1023.61 1022.99 1022.52 1022.04 1021.58 1021.02 1020.59 1020.30 1020.31 1020.12 1019.79 1019.55 1019.26 1019.00 1018.58
1019.50 1020.16 1020.91 1022.18 1022.72 1021.90 1021.57 1021.31 1020.92 1021.48 1022.59 1022.99 1023.26 1023.30 1023.51 1024.36 1024.91 1024.92 1025.13 1025.57 1025.85 1026.04 1025.98 1025.99 1025.79 1025.50 1025.05 1024.39 1023.85 1023.41 1023.01 1022.59 1022.16 1021.56 1021.09 1020.84 1020.42 1020.27 1020.28 1020.28 1020.02 1019.85 1019.50 1019.26
1020.63 1021.34 1021.99 1022.53 1022.72 1021.99 1021.40 1021.62 1021.89 1022.51 1023.51 1023.21 1023.70 1023.97 1024.28 1024.82 1025.34 1025.43 1025.73 1026.08 1026.28 1026.25 1026.25 1026.11 1025.90 1025.56 1024.92 1024.30 1023.81 1023.34 1022.91 1022.53 1021.97 1021.56 1021.16 1020.80 1020.73 1020.60 1020.66 1020.58 1020.37 1020.29 1019.98 1019.53
1021.34 1022.08 1022.56 1022.99 1023.02 1022.53 1021.86 1022.26 1022.71 1023.32 1023.61 1023.93 1024.36 1024.78 1025.01 1025.24 1025.52 1025.89 1026.19 1026.42 1026.46 1026.54 1026.36 1026.08 1025.80 1025.29 1024.66 1024.00 1023.55 1023.32 1022.94 1022.33 1021.95 1021.53 1021.26 1021.10 1021.13 1021.15 1021.03 1020.87 1020.85 1020.68 1020.29 1019.93
1021.61 1021.78 1022.22 1023.34 1023.11 1022.77 1022.79 1022.95 1023.21 1023.53 1024.19 1024.83 1025.18 1025.42 1025.57 1025.91 1026.24 1026.42 1026.66 1026.82 1026.81 1026.75 1026.50 1026.08 1025.76 1025.08 1024.15 1023.65 1023.24 1022.95 1022.61 1022.23 1021.91 1021.61 1021.39 1021.39 1021.56 1021.56 1021.52 1021.43 1021.25 1021.03 1020.67 1020.24
1021.07 1021.40 1022.39 1023.28 1023.48 1023.56 1023.63 1023.83 1023.99 1024.42 1025.02 1025.54 1025.80 1026.01 1026.26 1026.60 1026.76 1026.84 1026.81 1027.05 1026.97 1026.72 1026.38 1025.89 1025.40 1024.92 1024.30 1023.46 1023.02 1022.87 1022.54 1022.32 1022.18 1022.04 1021.89 1021.85 1021.95 1021.96 1021.87 1021.70 1021.30 1021.18 1020.95 1020.53
1021.47 1021.69 1022.84 1023.77 1023.96 1024.18 1024.37 1024.48 1024.81 1025.31 1025.76 1026.07 1026.30 1026.48 1026.71 1026.94 1027.08 1027.04 1027.16 1027.07 1026.95 1026.72 1026.17 1025.63 1025.28 1024.82 1024.28 1023.72 1023.22 1022.83 1022.60 1022.47 1022.53 1022.49 1022.45 1022.35 1022.28 1022.12 1021.86 1021.70 1021.53 1021.28 1021.15 1020.96
1021.68 1022.10 1022.69 1022.74 1022.82 1023.66 1024.28 1024.84 1025.32 1025.72 1026.12 1026.40 1026.61 1026.87 1027.07 1027.18 1027.33 1027.28 1027.23 1027.15 1026.93 1026.44 1025.84 1025.43 1024.90 1024.57 1024.26 1023.83 1023.54 1023.24 1023.09 1022.93 1022.95 1022.92 1022.86 1022.70 1022.51 1022.29 1022.00 1021.76 1021.49 1021.30 1021.27 1021.12
Wind_Speed
4 5 5 10 7 2 3 1 3 6 6 4 7 9 9 8 10 5 2 4 8 8 7 8 9 8 7 6 5 3 5 2 4 3 4 3 1 1 1 2 3 4 4 4
7 3 9 4 3 2 1 3 4 6 6 8 8 9 5 11 4 5 8 8 9 9 10 10 7 5 3 5 2 4 4 3 2 3 2 2 2 2 1 2 4 4 4 4
4 6 5 4 5 6 2 5 1 2 4 3 4 7 9 6 6 12 8 6 9 13 12 11 9 4 7 4 7 6 6 4 3 4 2 1 2 1 2 2 3 3 5 5
2 5 3 4 4 3 1 2 1 1 4 2 4 4 3 8 6 13 11 10 9 8 9 6 5 5 4 7 4 1 4 4 4 6 2 2 1 1 2 2 2 5 5 6
6 5 3 5 2 0 4 4 4 2 3 3 6 5 6 6 7 8 8 10 9 10 12 8 5 5 5 7 4 3 2 4 7 3 4 2 2 2 2 3 6 5 5 6
3 3 4 1 2 4 2 4 7 5 4 4 4 3 6 4 4 2 3 9 8 11 11 8 7 3 7 4 6 5 3 6 6 5 6 6 4 3 4 5 4 4 3 4
6 5 4 5 6 5 7 8 5 6 6 6 3 3 7 4 3 7 8 8 9 8 7 5 6 8 7 8 8 7 7 6 7 7 7 5 4 4 5 6 5 6 5 4
3 6 7 8 2 3 4 6 7 4 3 6 4 3 3 1 4 6 6 6 7 6 7 12 11 8 10 12 11 9 8 7 7 7 5 4 6 4 4 5 5 4 4 4
3 4 4 1 3 2 2 2 1 6 2 2 3 1 4 6 5 7 9 11 10 11 11 12 9 9 8 6 6 7 6 8 6 5 4 5 4 5 5 6 5 4 4 5
3 3 3 7 4 4 3 3 2 4 1 3 3 3 5 4 6 8 10 10 9 10 9 8 8 6 5 5 5 7 6 4 4 6 5 4 6 6 5 4 6 6 6 5
3 3 7 4 4 4 5 4 5 4 5 5 2 6 2 6 6 10 8 7 8 7 7 8 7 5 4 4 4 5 5 6 6 6 5 6 6 6 6 5 6 6 5 6
3 4 2 6 6 5 1 3 4 6 4 0 4 5 4 8 10 11 10 9 6 6 5 7 2 5 4 3 4 5 6 6 6 6 6 6 6 6 6 6 6 6 7 6
3 3 4 11 8 6 5 5 2 3 3 5 5 4 4 8 8 7 12 9 9 6 5 3 2 4 5 5 5 6 6 6 6 6 6 7 7 6 7 7 7 6 6 6
7 3 7 6 7 3 6 7 5 4 3 4 6 6 6 7 10 7 6 6 6 6 4 0 3 5 3 4 5 5 6 5 6 6 6 7 7 7 7 7 6 6 5 5
5 2 4 6 7 5 4 6 7 1 6 4 3 6 4 6 7 3 6 6 6 2 1 2 3 6 7 6 6 6 6 6 5 6 6 7 7 7 7 6 6 6 6 5
3 1 1 4 6 5 3 9 4 5 4 6 6 7 3 5 6 4 3 2 4 2 4 6 6 6 6 7 6 6 6 7 6 7 7 7 7 7 7 6 7 6 6 5
2 5 3 5 5 6 5 7 7 7 7 2 5 2 3 2 3 4 3 2 3 2 5 5 5 6 6 6 6 6 7 7 6 6 6 6 6 6 7 6 6 6 6 3
7 5 3 3 4 1 3 6 9 11 6 5 5 3 0 2 2 3 2 3 4 5 6 6 5 6 6 6 6 6 6 6 6 6 6 6 5 6 6 6 6 5 3 3
3 6 3 3 1 2 2 4 4 3 5 8 6 2 5 4 2 2 2 3 0 4 5 4 5 6 6 7 7 6 7 7 6 7 7 6 5 5 5 6 7 6 6 5
5 5 5 3 2 4 2 3 8 5 4 4 7 6 5 5 2 3 3 0 4 5 5 6 7 6 6 7 6 6 6 6 6 8 8 6 2 3 4 6 6 4 3 5
4 4 2 3 3 4 3 1 6 2 5 4 1 3 3 2 3 2 2 2 4 4 6 6 6 6 7 7 6 7 6 6 6 6 6 4 2 5 5 4 5 5 5 5
3 2 3 2 1 5 2 2 1 4 4 4 3 2 2 3 2 2 4 5 6 6 5 6 6 7 7 6 4 5 6 6 7 5 5 3 5 5 5 6 5 5 5 5
3 6 5 5 5 1 3 2 1 2 4 2 3 2 3 2 3 4 3 5 4 5 5 4 5 7 7 6 4 5 6 5 6 6 4 4 5 5 5 5 5 4 5 5
1 3 4 4 1 3 4 3 4 4 5 4 4 3 3 3 4 2 2 3 3 4 5 5 6 7 8 7 6 4 5 5 6 6 5 4 5 4 4 3 3 3 4 5
4 4 5 2 3 5 2 3 5 6 6 6 4 3 4 5 4 3 3 4 4 5 5 5 6 6 7 6 6 5 6 5 4 5 5 4 3 3 2 3 2 3 2 3
1 5 5 7 8 5 4 6 5 6 5 4 4 3 3 4 3 2 3 3 4 6 6 7 7 5 6 6 6 6 6 6 5 5 4 3 3 3 3 3 4 3 3 6
Wind_Direction
349 47 252 251 197 165 278 251 273 279 285 54 55 36 28 5 34 56 314 133 155 139 108 100 110 117 108 69 82 59 130 142 120 81 91 74 111 356 335 298 310 320 324 341
13 275 280 217 181 127 172 79 312 297 332 93 64 21 352 46 15 20 191 179 148 128 126 128 128 121 79 112 129 178 160 216 112 105 157 151 185 222 214 283 296 299 328 313
149 267 1 76 38 112 59 122 359 236 343 43 85 6 9 346 27 30 11 88 119 140 138 137 135 115 92 131 211 201 177 163 153 143 144 129 37 20 340 305 312 311 309 309
204 292 89 65 69 117 100 221 249 74 57 264 29 267 17 328 2 30 35 74 96 104 95 73 67 74 168 211 308 255 108 160 196 200 186 199 151 248 291 294 276 302 313 322
271 301 359 67 351 109 230 44 0 14 88 52 350 76 296 351 15 18 33 76 83 90 94 90 92 317 338 19 347 1 240 217 227 237 18 34 360 342 300 295 308 316 315 321
288 292 46 2 55 30 57 48 39 47 72 35 283 110 316 323 302 62 59 89 94 100 101 99 96 26 353 14 228 202 238 352 354 12 32 42 38 331 333 322 320 316 307 307
348 351 305 40 17 356 64 49 349 357 8 229 301 58 228 258 241 159 131 101 91 96 100 90 59 44 36 52 35 50 48 33 25 49 48 45 22 348 326 308 307 320 321 303
79 326 13 339 55 264 331 143 151 235 222 260 343 166 222 104 38 112 86 76 79 75 70 83 75 66 50 44 39 37 27 14 8 15 9 1 3 341 309 300 309 297 277 285
64 285 302 263 354 75 287 350 222 115 45 69 267 230 22 93 90 89 98 89 87 83 77 78 75 64 53 35 34 36 11 356 353 323 342 347 332 318 310 308 293 273 297 326
188 322 334 310 27 341 93 150 0 5 161 261 284 240 213 177 122 94 100 96 75 71 68 60 55 58 72 40 7 14 350 323 329 348 356 344 317 310 305 302 325 326 316 305
74 91 292 5 9 292 358 8 49 117 136 180 241 264 295 182 139 112 94 80 83 82 72 36 12 15 29 37 2 338 341 343 342 340 328 321 314 316 315 316 307 301 293 288
17 127 292 256 301 309 92 52 104 115 269 228 151 270 358 107 114 120 116 112 106 92 80 95 297 298 300 314 333 340 338 339 331 321 323 326 315 316 314 304 299 291 286 293
179 24 13 346 358 359 18 360 87 110 54 209 145 237 101 103 112 137 140 149 126 135 132 124 233 302 326 335 339 342 337 325 319 323 320 314 313 317 311 306 302 304 304 304
85 119 149 194 225 209 301 324 318 160 134 235 222 162 174 133 142 141 128 142 135 130 108 176 276 261 284 359 345 325 318 319 312 310 312 312 319 316 306 303 305 312 315 325
93 163 172 244 252 256 255 304 314 291 270 178 269 117 156 155 144 153 139 148 105 89 40 324 314 4 355 336 323 323 319 310 311 318 323 320 314 305 306 318 326 327 345 348
13 228 66 286 315 317 323 343 109 17 49 50 69 62 52 72 83 78 39 67 105 32 353 352 352 337 322 317 315 314 309 321 325 319 318 319 319 322 329 339 344 348 354 359
137 136 92 273 339 339 14 360 72 72 37 86 53 359 176 117 131 115 152 154 113 32 338 329 334 326 314 301 305 320 314 308 312 320 323 321 322 340 350 347 0 1 358 353
149 123 121 224 18 42 239 53 85 84 41 77 82 46 50 136 98 66 44 103 48 346 327 330 331 312 300 301 317 310 315 322 330 327 318 317 341 360 360 359 355 347 350 342
132 129 101 114 136 179 214 7 317 23 27 351 73 121 171 198 61 319 59 65 25 313 311 308 301 298 306 311 316 322 329 340 342 336 325 338 17 26 14 358 348 352 4 15
63 52 107 94 167 251 150 286 332 154 197 175 256 236 196 154 300 272 155 160 339 338 334 325 316 310 310 313 317 337 340 340 330 329 333 324 40 81 32 7 16 346 14 12
14 2 59 109 229 284 197 279 298 105 258 171 161 12 344 242 225 180 141 24 354 342 320 311 309 297 296 311 331 328 324 321 306 317 332 4 26 66 40 34 23 7 12 5
101 186 228 90 121 296 50 338 207 199 24 104 73 50 80 86 87 84 29 7 346 328 320 327 332 325 315 322 338 315 324 305 314 318 359 12 35 35 44 53 25 15 10 358
198 190 178 155 223 293 6 163 74 117 121 91 102 57 103 86 17 27 13 330 312 312 319 313 322 310 315 305 280 293 312 331 328 331 16 65 50 41 31 32 21 11 354 349
338 126 94 77 319 85 101 56 71 66 101 105 114 115 96 89 44 16 5 335 334 325 319 311 327 331 317 329 346 335 331 338 6 19 33 56 52 43 31 4 358 19 360 348
208 74 124 71 34 81 30 75 124 109 108 105 88 72 86 96 56 49 8 346 323 311 306 316 308 302 313 328 335 353 346 2 42 48 35 49 35 0 353 36 356 356 1 347
166 165 151 216 192 146 176 165 148 136 130 135 112 78 66 82 56 29 352 314 298 316 313 321 318 321 342 354 356 12 19 35 50 40 40 23 19 1 359 353 335 300 324 10